Date String (YYYY-MM-DD hh:mm:ss) UTC,Instrument flags,absolute air pressure of the measurement (hPa),sample flow rate (lpm),inlet stack bypass flow (lpm),air temperature of the measurement (°C),ambient temperature measured by the external sensor (°C),aerosol sample conditioner tube jacket temperature (°C),OPC LED temperature (°C),internal box temperature (°C),relative humidity of the measurement (%),span deviation,mass concentration of particles derived from Lorenz-Mie calculation of OPC scattering (μg/m³),mass concentration of particles derived from Lorenz-Mie calculation of OPC scattering (μg/m³),mass concentration of particles derived from Lorenz-Mie calculation of OPC scattering (μg/m³)
DateTimeUTC,F1_M11,P_M11,Q1_M11,Q2_M11,T1_M11,T2_M11,T3_M11,T4_M11,T5_M11,U1_M11,ZSPAN_M11,X0_M11,X2_M11,X1_M11
2024-04-18 02:00:00,SystemResetWarning,0827.1,5.00,000.00,024.9,023.3,000.0,033.7,026.6,022.0,0000.0,0013.83,0003.47,0002.29
2024-04-18 02:01:00,SystemResetWarning,0827.2,5.00,000.00,025.0,023.6,000.0,033.6,026.8,022.0,0000.0,0013.81,0003.51,0002.30
2024-04-18 02:02:00,SystemResetWarning,0827.2,5.00,000.00,025.0,023.9,000.0,033.6,026.9,022.0,0000.0,0014.70,0003.56,0002.31
2024-04-18 02:03:00,SystemResetWarning,0827.2,5.00,000.00,025.1,024.1,000.0,033.6,027.0,021.9,0000.0,0014.62,0003.61,0002.32
2024-04-18 02:04:00,SystemResetWarning,0827.3,5.00,000.00,025.1,024.3,000.0,033.6,027.1,021.8,0000.0,0014.82,0003.65,0002.32
2024-04-18 02:05:00,SystemResetWarning,0827.4,5.00,000.00,025.2,024.5,000.0,033.6,027.2,021.8,0000.0,0014.26,0003.67,0002.32
2024-04-18 02:06:00,SystemResetWarning,0827.4,5.00,000.00,025.3,024.6,000.0,033.6,027.2,021.7,0000.0,0013.28,0003.65,0002.33
2024-04-18 02:07:00,SystemResetWarning,0827.4,4.99,000.00,025.3,024.7,000.0,033.6,027.3,021.6,0000.0,0013.54,0003.64,0002.32
2024-04-18 02:08:00,SystemResetWarning,0827.4,4.99,000.00,025.4,024.8,000.0,033.7,027.4,021.6,0000.0,0013.50,0003.63,0002.32
2024-04-18 02:09:00,SystemResetWarning,0827.5,5.00,000.00,025.4,024.9,000.0,033.7,027.4,021.5,0000.0,0013.62,0003.63,0002.32
2024-04-18 02:10:00,SystemResetWarning,0827.5,5.02,000.00,025.5,025.0,000.0,033.7,027.5,021.4,0000.0,0012.51,0003.59,0002.33
2024-04-18 02:11:00,SystemResetWarning,0827.6,4.99,000.00,025.5,025.0,000.0,033.8,027.5,021.4,0000.0,0011.67,0003.59,0002.33
2024-04-18 02:12:00,SystemResetWarning,0827.6,5.00,000.00,025.6,025.1,000.0,033.8,027.6,021.3,0000.0,0011.17,0003.60,0002.34
2024-04-18 02:13:00,SystemResetWarning,0827.6,5.00,000.00,025.6,025.2,000.0,033.8,027.6,021.2,0000.0,0010.25,0003.58,0002.33
2024-04-18 02:14:00,SystemResetWarning,0827.7,4.99,000.00,025.7,025.2,000.0,033.9,027.7,021.2,0000.0,0009.56,0003.55,0002.34
2024-04-18 02:15:00,SystemResetWarning,0827.7,5.00,000.00,025.7,025.3,000.0,033.9,027.7,021.2,0000.0,0009.28,0003.52,0002.35
2024-04-18 02:16:00,SystemResetWarning,0827.7,5.00,000.00,025.8,025.3,000.0,034.0,027.8,021.1,0000.0,0009.24,0003.48,0002.35
2024-04-18 02:17:00,SystemResetWarning,0827.7,5.01,000.00,025.8,025.4,000.0,034.0,027.8,021.1,0000.0,0009.78,0003.50,0002.36
2024-04-18 02:18:00,SystemResetWarning,0827.8,5.00,000.00,025.8,025.4,000.0,034.0,027.8,021.0,0000.0,0010.06,0003.52,0002.39
2024-04-18 02:19:00,SystemResetWarning,0827.8,5.00,000.00,025.9,025.5,000.0,034.1,027.9,021.0,0000.0,0009.84,0003.56,0002.42
2024-04-18 02:20:00,SystemResetWarning,0827.8,4.99,000.00,025.9,025.5,000.0,034.1,027.9,020.9,0000.0,0009.20,0003.58,0002.44
2024-04-18 02:21:00,SystemResetWarning,0827.8,4.99,000.00,025.9,025.5,000.0,034.1,027.9,020.8,0000.0,0010.18,0003.60,0002.45
2024-04-18 02:22:00,SystemResetWarning,0827.8,4.99,000.00,026.0,025.5,000.0,034.2,027.9,020.7,0000.0,0010.71,0003.62,0002.46
2024-04-18 02:23:00,SystemResetWarning,0827.7,5.00,000.00,025.9,024.8,000.0,034.2,027.5,020.7,0000.0,0010.70,0003.60,0002.49
2024-04-18 02:24:00,SystemResetWarning,0827.7,5.01,000.00,025.5,022.4,000.0,034.2,026.2,021.1,0000.0,0011.09,0003.63,0002.53
2024-04-18 02:25:00,SystemResetWarning,0827.7,5.01,000.00,025.1,021.8,000.0,034.2,025.6,021.7,0000.0,0011.45,0003.67,0002.59
2024-04-18 02:26:00,SystemResetWarning,0827.8,4.99,000.00,024.9,022.0,000.0,034.0,025.7,022.0,0000.0,0011.97,0003.72,0002.66
2024-04-18 02:27:00,SystemResetWarning,0827.9,5.00,000.00,024.9,022.4,000.0,033.9,026.1,022.1,0000.0,0012.40,0003.79,0002.75
2024-04-18 02:28:00,SystemResetWarning,0827.9,4.99,000.00,024.9,022.8,000.0,033.8,026.4,022.0,0000.0,0012.15,0003.82,0002.79
2024-04-18 02:29:00,SystemResetWarning,0827.9,5.00,000.00,024.9,023.2,000.0,033.7,026.6,021.9,0000.0,0012.61,0003.83,0002.85
2024-04-18 02:30:00,SystemResetWarning,0827.9,5.00,000.00,025.0,023.5,000.0,033.7,026.7,021.9,0000.0,0012.24,0003.83,0002.92
2024-04-18 02:31:00,SystemResetWarning,0827.8,5.00,000.00,025.0,023.7,000.0,033.7,026.8,021.8,0000.0,0012.15,0003.86,0003.01
2024-04-18 02:32:00,SystemResetWarning,0827.9,5.00,000.00,025.1,024.0,000.0,033.6,026.9,021.8,0000.0,0011.42,0003.90,0003.11
2024-04-18 02:33:00,SystemResetWarning,0827.8,5.01,000.00,025.1,024.1,000.0,033.6,027.0,021.8,0000.0,0010.73,0003.93,0003.16
2024-04-18 02:34:00,SystemResetWarning,0828.0,5.00,000.00,025.2,024.3,000.0,033.6,027.1,021.7,0000.0,0010.93,0003.97,0003.21
2024-04-18 02:35:00,SystemResetWarning,0828.1,5.00,000.00,025.2,024.4,000.0,033.6,027.2,021.6,0000.0,0010.48,0003.96,0003.24
2024-04-18 02:36:00,SystemResetWarning,0828.1,5.00,000.00,025.3,024.5,000.0,033.7,027.2,021.6,0000.0,0010.37,0003.98,0003.27
2024-04-18 02:37:00,SystemResetWarning,0828.2,4.99,000.00,025.3,024.7,000.0,033.7,027.3,021.6,0000.0,0009.76,0003.97,0003.29
2024-04-18 02:38:00,SystemResetWarning,0828.2,4.99,000.00,025.4,024.8,000.0,033.7,027.3,021.5,0000.0,0009.15,0003.95,0003.31
2024-04-18 02:39:00,SystemResetWarning,0828.2,5.02,000.00,025.4,024.8,000.0,033.7,027.4,021.4,0000.0,0009.21,0003.94,0003.33
2024-04-18 02:40:00,SystemResetWarning,0828.3,5.01,000.00,025.4,024.9,000.0,033.7,027.4,021.4,0000.0,0008.68,0003.95,0003.35
2024-04-18 02:41:00,SystemResetWarning,0828.4,4.99,000.00,025.5,025.0,000.0,033.8,027.5,021.3,0000.0,0008.90,0003.98,0003.37
2024-04-18 02:42:00,SystemResetWarning,0828.4,4.99,000.00,025.5,025.0,000.0,033.8,027.5,021.3,0000.0,0009.10,0003.99,0003.38
2024-04-18 02:43:00,SystemResetWarning,0828.4,5.00,000.00,025.6,025.1,000.0,033.8,027.6,021.2,0000.0,0008.93,0003.95,0003.38
2024-04-18 02:44:00,SystemResetWarning,0828.4,5.01,000.00,025.6,025.1,000.0,033.9,027.6,021.2,0000.0,0008.94,0003.96,0003.38
2024-04-18 02:45:00,SystemResetWarning,0828.4,5.01,000.00,025.6,025.2,000.0,033.9,027.6,021.1,0000.0,0008.82,0003.99,0003.39
2024-04-18 02:46:00,SystemResetWarning,0828.4,4.99,000.00,025.7,025.2,000.0,033.9,027.7,021.1,0000.0,0009.12,0004.05,0003.42
2024-04-18 02:47:00,SystemResetWarning,0828.4,4.99,000.00,025.7,025.3,000.0,034.0,027.7,021.1,0000.0,0010.14,0004.06,0003.44
2024-04-18 02:48:00,SystemResetWarning,0828.4,5.00,000.00,025.7,025.3,000.0,034.0,027.7,021.1,0000.0,0010.51,0004.07,0003.45
2024-04-18 02:49:00,SystemResetWarning,0828.4,5.01,000.00,025.8,025.3,000.0,034.0,027.8,021.0,0000.0,0010.74,0004.11,0003.46
2024-04-18 02:50:00,SystemResetWarning,0828.4,5.01,000.00,025.8,025.3,000.0,034.1,027.8,021.0,0000.0,0010.97,0004.12,0003.46
2024-04-18 02:51:00,SystemResetWarning,0828.5,5.00,000.00,025.8,025.4,000.0,034.1,027.8,021.0,0000.0,0010.41,0004.15,0003.48
2024-04-18 02:52:00,SystemResetWarning,0828.6,5.00,000.00,025.9,025.4,000.0,034.1,027.8,020.9,0000.0,0010.14,0004.14,0003.49
2024-04-18 02:53:00,SystemResetWarning,0828.6,4.99,000.00,025.9,025.4,000.0,034.2,027.9,020.9,0000.0,0009.95,0004.12,0003.50
2024-04-18 02:54:00,SystemResetWarning,0828.6,4.99,000.00,025.9,025.5,000.0,034.2,027.9,020.8,0000.0,0011.03,0004.20,0003.51
2024-04-18 02:55:00,SystemResetWarning,0828.6,5.00,000.00,025.9,025.5,000.0,034.2,027.9,020.7,0000.0,0011.10,0004.24,0003.52
2024-04-18 02:56:00,SystemResetWarning,0828.7,5.00,000.00,026.0,025.5,000.0,034.2,027.9,020.7,0000.0,0011.12,0004.23,0003.52
2024-04-18 02:57:00,SystemResetWarning,0828.8,5.00,000.00,026.0,025.5,000.0,034.3,027.9,020.7,0000.0,0011.51,0004.20,0003.53
2024-04-18 02:58:00,SystemResetWarning,0828.8,5.00,000.00,026.0,025.5,000.0,034.3,028.0,020.6,0000.0,0010.95,0004.19,0003.53
2024-04-18 02:59:00,SystemResetWarning,0828.8,5.01,000.00,026.0,025.5,000.0,034.3,028.0,020.6,0000.0,0010.17,0004.18,0003.53
